User: anonymous   Login
Location: Caltech
(34.1382°N, 118.1253°W)
Time: 16:29:14
(UTC-07:00)
Language:

SL-16 R/B - Orbit

View from above orbital plane
View from above orbital plane
View from above satellite
View from above satellite

Ground track
Ground track

The orbit data is extracted from the following two-line orbital elements,

1 28353U 04021B   15211.19427586 -.00000017  00000-0  16272-4 0  9991
2 28353 071.0000 081.2488 0005110 186.9702 173.1349 14.14152351574890
Epoch (UTC): 30 July 2015 04:39:45
Eccentricity: 0.0005110
inclination: 71.0000°
perigee height: 841 km
apogee height: 849 km
right ascension of ascending node: 81.2488°
argument of perigee: 186.9702°
revolutions per day: 14.14152351
mean anomaly at epoch: 173.1349°
orbit number at epoch: 57489

The dashed part of the orbit path shows where the satellite is in the earth's shadow,  

DLR